Terminal Aerodrome Forecast
Issued by NWS

Home | Current Version | Previous Version | Text Only | Print | Product List | Glossary On
Versions: 1 2 3 4 5 6 7 8 9 10 11 12 13 14 15 16 17 18 19 20 21 22 23 24 25 26 27 28 29 30 31 32 33 34 35
000
FTUS41 KBOX 181723
TAFBAF
TAF
KBAF 181723Z 1818/1918 31014G25KT P6SM BKN030
     FM190000 31008KT P6SM SCT025
     FM190500 32006KT P6SM SCT250
     FM190900 32007KT P6SM SCT030
     FM191400 33009KT P6SM BKN050=

USA.gov is the U.S. government's official web portal to all federal, state and local government web resources and services.